Location: Erlenbrunn
(49.1717°N, 7.6142°E)
Time: 06:29:12
(UTC+00:00)

Cosmos 2360 Rocket - Pass Details

Date: 25 November 2020
Orbit: 833 x 845 km, 71.0° (Epoch: 27 January)

Event Time Altitude Azimuth Distance (km) Brightness Sun altitude
Rises 17:10:08 0° 261° (W) 3,380 7.2 -14.6°
Reaches altitude 10° 17:13:21 10° 279° (W) 2,448 5.7 -15.1°
Maximum altitude 17:17:12 19° 323° (NW) 1,918 4.3 -15.8°
Drops below altitude 10° 17:21:04 10° 7° (N) 2,455 4.4 -16.4°
Enters shadow 17:22:53 - 18° (NNE) 2,952 4.7 -16.7°
